Regional Weather Roundup
Issued by NWS

Home | Current Version | Previous Version | Graphics & Text | Print | Product List | Glossary Off
Versions: 1 2 3 4 5 6 7 8 9 10 11 12 13 14 15 16 17 18 19 20 21 22 23 24 25 26 27 28 29 30 31 32 33 34 35 36 37 38 39 40 41 42 43 44 45 46 47 48 49 50

000
ASUS43 KMPX 221110
RWRMN
WEATHER ROUNDUP FOR MINNESOTA
NATIONAL WEATHER SERVICE TWIN CITIES/CHANHASSEN MN
600 AM CDT SUN APR 22 2018


NOTE: "FAIR" INDICATES FEW OR NO CLOUDS BELOW 12,000 FEET WITH NO
SIGNIFICANT WEATHER AND/OR OBSTRUCTIONS TO VISIBILITY. N/A MEANS
CURRENT SKY AND/OR WEATHER CONDITIONS ARE NOT AVAILABLE.

MNZ060>063-068>070-221200-
   Twin Cities Metro

CITY           SKY/WX    TMP DP  RH WIND       PRES   REMARKS
TWIN CITIES    FAIR      40  32  73 SE3       30.34R
ST PAUL        FAIR      34  32  92 E3        30.36R
CRYSTAL        FAIR      31  25  78 CALM      30.34R
BLAINE         FAIR      32  28  86 CALM      30.34R
LAKEVILLE      FAIR      28  28 100 CALM      30.34S
EDEN PRAIRIE   FAIR      34  28  79 NE3       30.33R
SOUTH ST PAUL  FAIR      34  30  84 CALM      30.35R
LAKE ELMO      FAIR      30  30 100 CALM      30.36R
$$
MNZ001>005-007-008-013>017-022>024-027-028-221200-
   Northwest Minnesota

CITY           SKY/WX    TMP DP  RH WIND       PRES   REMARKS
BEMIDJI        FAIR      31  28  88 S5        30.29R WCI  26
HALLOCK        FAIR      39  37  93 S12       30.20R
ROSEAU         FAIR      39  34  81 S8        30.22F
WARROAD        FAIR      39  36  87 S5        30.23F
THIEF RVR FALL FAIR      37  33  85 S10       30.25F
CROOKSTON      FAIR      37  34  87 S9        30.25F
FOSSTON        FAIR      34  28  80 S8        30.28F WCI  27
DETROIT LAKES  FAIR      32  30  93 CALM      30.30R
MOORHEAD       FAIR      34  30  86 S5        30.28F WCI  30
PARK RAPIDS    FAIR      33  28  81 CALM      30.29S
MAHNOMEN       FAIR      35  30  81 S7        30.27F WCI  30
$$
MNZ006-009>011-018-025>026-221200-
   North Central Minnesota

CITY           SKY/WX    TMP DP  RH WIND       PRES   REMARKS
BAUDETTE       FAIR      37  30  75 S3        30.25F
FLAG ISLAND    FAIR      34  30  86 SE7       30.22S WCI  28
INTL FALLS     FAIR      33  24  69 CALM      30.28F
WASKISH        FAIR      39  30  70 S5        30.28S
BIG FORK       FAIR      27  23  86 CALM      30.30F
LONGVILLE      FAIR      25  23  93 CALM      30.32R
GRAND RAPIDS   FAIR      28  23  81 CALM      30.33S
CRANE LAKE     FAIR      21  21 100 CALM      30.34R
ORR            FAIR      34  16  47 CALM      30.29S
COOK           FAIR      25  21  86 CALM      30.32S
WALKER         FAIR      33  29  85 CALM      30.30S
$$
MNZ012-019>021-037-221200-
   Northeast Minnesota

CITY           SKY/WX    TMP DP  RH WIND       PRES   REMARKS
DULUTH         FAIR      31  19  61 CALM      30.33R
ELY            FAIR      25  19  80 CALM      30.33S
HIBBING        FAIR      23  21  92 CALM      30.33R
EVELETH        FAIR      24  22  91 CALM      30.34S
DULUTH HARBOR  FAIR      28  27  93 CALM      30.37R
TWO HARBORS    FAIR      28  21  74 CALM      30.33R
SILVER BAY     FAIR      25  21  86 CALM      30.33R
GRAND MARAIS     N/A     29  22  75 NW3       30.35R
G MARAIS ARPRT FAIR      25  12  58 CALM      30.34R
$$
MNZ029>031-032-039>041-046>048-054>057-064-221200-
   West Central Minnesota

CITY           SKY/WX    TMP DP  RH WIND       PRES   REMARKS
FERGUS FALLS   FAIR      37  30  75 SE6       30.29R
WHEATON        CLEAR     32  30  93 SE7       30.31S WCI  26
MORRIS         CLEAR     34  34 100 SE6       30.30S FOG     WCI  29
ALEXANDRIA     FAIR      33  29  85 SE3       30.31S
ELBOW LAKE     FAIR      35  32  88 E6        30.30S WCI  30
WADENA         FAIR      28  28 100 CALM      30.30S
GLENWOOD       FAIR      34  34 100 CALM      30.32R FOG
APPLETON       CLEAR     30  30 100 CALM      30.31S FOG
BENSON         CLEAR     30  28  93 SE3       30.33S FOG
ORTONVILLE     CLEAR     32  30  93 SE6       30.30S WCI  26
MADISON        CLEAR     36  34  93 E5        30.31R
WILLMAR        FAIR      30  28  93 CALM      30.35R
$$
MNZ033>034-036-042>043-049>051-058-059-221200-
   Central Minnesota

CITY           SKY/WX    TMP DP  RH WIND       PRES   REMARKS
ST CLOUD       FAIR      28  27  96 CALM      30.33R
SAUK CENTRE    FAIR      29  28  97 CALM      30.33R FOG
PAYNESVILLE    FAIR      31  30  97 CALM      30.34R
AITKIN         FAIR      23  21  93 CALM      30.31S
PINE RIVER     FAIR      27  23  86 CALM      30.34S
BRAINERD       FAIR      28  23  81 CALM      30.32S
STAPLES        FAIR      27  27 100 CALM      30.31S
LONG PRAIRIE   FAIR      30  28  93 CALM      30.32S
LITTLE FALLS   FAIR      30  27  86 CALM      30.33S
LITCHFIELD     FAIR      34  32  93 CALM      30.33S
BUFFALO        FAIR      32  27  82 CALM      30.35R
MAPLE LAKE     FAIR      30  29  97 CALM      30.35R
HUTCHINSON     FAIR      33  32  97 CALM      30.34R
$$
MNZ037-044-045-052-053-221200-
   East Central Minnesota

CITY           SKY/WX    TMP DP  RH WIND       PRES   REMARKS
PRINCETON      FAIR      28  27  93 CALM      30.35R
MORA           FAIR      27  25  93 CALM      30.36R
CAMBRIDGE      FAIR      28  19  69 CALM      30.35R
RUSH CITY      FAIR      27  23  85 CALM      30.35R
MOOSE LAKE     FAIR      25  21  86 CALM      30.33R
HINCKLEY       FAIR      27  23  86 CALM      30.34R
CLOQUET        FAIR      27  18  69 CALM      30.33S
MCGREGOR       FAIR      27  23  86 CALM      30.33S
$$
MNZ071>073-080-081-089-090-097-098-221200-
   Southwest Minnesota

CITY           SKY/WX    TMP DP  RH WIND       PRES   REMARKS
MONTEVIDEO     CLEAR     34  32  93 CALM      30.32R
GRANITE FALLS  MOCLDY    37  33  87 E3        30.33S
CANBY          MOCLDY    32  31  95 CALM      30.31S
MARSHALL       CLOUDY    34  30  85 S5        30.31R WCI  30
REDWOOD FALLS  PTCLDY    33  32  96 CALM      30.32R
OLIVIA         CLEAR     34  32  93 CALM      30.31S
PIPESTONE      CLOUDY   N/A N/A N/A SE6       30.29R
WINDOM         CLEAR     36  19  51 CALM      30.30S
WORTHINGTON    PTCLDY    31  28  89 CALM      30.30S
JACKSON        CLOUDY    34  32  93 CALM      30.30S
TRACY          CLEAR     40  34  78 S9        30.30R
SLAYTON        MOCLDY    33  31  90 CALM      30.31R
$$
MNZ065>067-074>077-082>085-091>093-221200-
   South Central Minnesota

CITY           SKY/WX    TMP DP  RH WIND       PRES   REMARKS
MANKATO        FAIR      35  32  88 SE6       30.33  WCI  30
NEW ULM        PTCLDY    36  30  80 SE5       30.32R
ST JAMES       CLEAR     30  30 100 CALM      30.32S FOG
FAIRMONT       CLOUDY    34  30  85 CALM      30.32R
GLENCOE        FAIR      32  32 100 CALM      30.32S FOG
OWATONNA       FAIR      34  30  86 CALM      30.33R
WASECA         FAIR      32  30  93 E5        30.34R WCI  27
ALBERT LEA     FAIR      37  28  70 CALM      30.32S
$$
MNZ078>079-086>088-094>096-221200-
   Southeast Minnesota

CITY           SKY/WX    TMP DP  RH WIND       PRES   REMARKS
ROCHESTER      FAIR      35  31  85 SE5       30.33S WCI  31
RED WING       FAIR      30  27  86 CALM      30.34S
STANTON        FAIR      32  29  91 SW3       30.33S
DODGE CENTER   FAIR      36  32  87 SE3       30.33R
WINONA         FAIR      34  32  93 CALM      30.34S
AUSTIN         FAIR      34  28  80 CALM      30.32S
PRESTON        CLOUDY    37  31  82 E3        30.34R
$$
ABBREVIATIONS USED IN REMARKS
   TC - TEMPERATURES IN CELSIUS
  WCI - WIND CHILL INDEX
   HX - HEAT INDEX
  VSB - VISIBILITY
$$




USA.gov is the U.S. government's official web portal to all federal, state and local government web resources and services.